Home   Weather   Zaragoza   Past weeks

Flag for Spain Past Weather in Zaragoza, Spain — Yesterday and Last 2 Weeks

Now
68 °F

Clear.


Feels Like: 68 °F
Forecast: 57 / 81 °F
Wind: 6 mph from Southeast

Location: Zaragoza / Aeropuerto

Current Time: Sep 28, 2016 at 10:42:11 PM

Latest Report: Sep 28, 2016 at 10:00 PM


Visibility: 10 mi

Pressure: 30.36 "Hg

Humidity: 46%

Dew Point: 46 °F

Location of ZaragozaLocation

Past Weather in Zaragoza — Graph

°F

Zaragoza Temperature Yesterday

Maximum temperature yesterday: 79 °F (at 4:00 PM)
Minimum temperature yesterday: 61 °F (at 8:00 AM)
Average temperature yesterday: 70 °F

High & Low Weather Summary for the Past Weeks

 TemperatureHumidityPressure
High84 °F (Sep 22, 5:00 PM)94% (Sep 28, 7:30 AM)30.42 "Hg (Sep 28, 7:30 AM)
Low54 °F (Sep 15, 1:00 AM)25% (Sep 22, 6:30 PM)29.86 "Hg (Sep 13, 9:00 PM)
Average67 °F60%30.11 "Hg
* Reported Sep 13 9:00 PM — Sep 28 9:30 PM, Zaragoza, Weather by CustomWeather, © 2016

Note: Actual official high and low records may vary slightly from our data, if they occured in-between our weather recording intervals... More about our weather records

Advertising

Zaragoza Weather History for the Previous 24 Hours

Scroll right to see more
 ConditionsComfort  
Time TempWeatherWind HumidityBarometerVisibility
9:30 PM
Wed, Sep 28
68 °FClear.5 mph46%30.36 "Hg10 mi
8:30 PM75 °FClear.3 mph39%30.36 "Hg10 mi
8:00 PM75 °FClear.5 mph39%30.36 "Hg10 mi
7:30 PM77 °FSunny.6 mph34%30.36 "Hg10 mi
7:00 PM79 °FPassing clouds.8 mph32%30.36 "HgN/A
6:30 PM79 °FPassing clouds.9 mph32%30.33 "HgN/A
6:00 PM79 °FPassing clouds.10 mph32%30.33 "HgN/A
5:30 PM81 °FPassing clouds.10 mph28%30.36 "HgN/A
5:00 PM81 °FPassing clouds.12 mph30%30.36 "HgN/A
4:30 PM81 °FPassing clouds.10 mph28%30.36 "HgN/A
4:00 PM79 °FPassing clouds.12 mph34%30.36 "HgN/A
3:30 PM79 °FPassing clouds.13 mph37%30.36 "HgN/A
3:00 PM79 °FPassing clouds.10 mph39%30.39 "HgN/A
2:30 PM77 °FPassing clouds.7 mph44%30.39 "HgN/A
2:00 PM77 °FPassing clouds.6 mph44%30.39 "HgN/A
1:30 PM75 °FPassing clouds.7 mph50%30.42 "HgN/A
1:00 PM73 °FPassing clouds.3 mph53%30.42 "HgN/A
12:00 PM70 °FPassing clouds.2 mph64%30.42 "HgN/A
11:30 AM70 °FPassing clouds.1 mph64%30.42 "HgN/A
11:00 AM68 °FPassing clouds.3 mph69%30.42 "HgN/A
10:30 AM66 °FPassing clouds.1 mph73%30.42 "HgN/A
10:00 AM66 °FPassing clouds.No wind73%30.42 "HgN/A
9:30 AM63 °FPassing clouds.2 mph83%30.39 "HgN/A
9:00 AM61 °FPassing clouds.3 mph88%30.39 "HgN/A
8:30 AM59 °FPassing clouds.7 mph94%30.36 "HgN/A
8:00 AM59 °FPassing clouds.7 mph94%30.36 "HgN/A
7:30 AM59 °FPassing clouds.7 mph94%30.36 "HgN/A
7:00 AM61 °FPassing clouds.7 mph88%30.36 "HgN/A
6:30 AM61 °FPassing clouds.3 mph88%30.36 "HgN/A
6:00 AM63 °FPassing clouds.8 mph88%30.33 "HgN/A
5:30 AM63 °FPassing clouds.9 mph88%30.33 "HgN/A
5:00 AM63 °FPassing clouds.7 mph88%30.33 "HgN/A
4:30 AM63 °FPassing clouds.9 mph88%30.33 "HgN/A
4:00 AM64 °FPassing clouds.12 mph83%30.33 "HgN/A
3:30 AM64 °FPassing clouds.12 mph83%30.33 "HgN/A
3:00 AM64 °FPassing clouds.14 mph83%30.33 "HgN/A
2:30 AM64 °FPassing clouds.15 mph83%30.30 "HgN/A
2:00 AM66 °FPassing clouds.15 mph78%30.30 "HgN/A
1:30 AM66 °FPassing clouds.15 mph78%30.30 "HgN/A
1:00 AM66 °FPassing clouds.14 mph78%30.33 "HgN/A
12:30 AM66 °FPassing clouds.13 mph78%30.30 "HgN/A
12:00 AM66 °FPassing clouds.15 mph73%30.30 "HgN/A
11:30 PM
Tue, Sep 27
68 °FPassing clouds.17 mph69%30.30 "HgN/A
11:00 PM68 °FPassing clouds.18 mph69%30.30 "HgN/A
10:30 PM68 °FPassing clouds.17 mph69%30.30 "HgN/A
10:00 PM68 °FPassing clouds.18 mph69%30.30 "HgN/A
Weather by CustomWeather, © 2016

See weather overviewHow to use our weather pages